Temperature
19 20 21 21 21 20 19 17 17 18 17 17 17 17 18 18 18 18 18 18 17 17 16 15 14 13 13 12 12 11 11 10 10 10 9 9 9 9 9 8 8 8 8 8
21 21 21 21 21 21 20 19 18 18 18 17 17 18 18 18 18 18 18 18 17 16 15 15 14 13 12 12 11 11 10 10 10 9 9 9 9 8 8 8 8 8 8 8
19 20 21 21 21 21 21 20 18 18 18 17 17 16 18 18 18 18 18 18 17 16 15 14 13 13 12 11 11 10 10 10 9 9 9 9 8 8 8 8 8 8 8 8
18 20 21 20 20 20 20 20 18 18 18 16 18 19 19 19 19 19 18 17 16 16 15 14 13 12 12 11 11 10 10 9 9 9 9 8 8 8 8 8 8 8 8 8
16 19 20 20 20 19 20 20 19 18 17 17 17 17 18 19 19 19 18 17 16 15 14 14 13 12 11 11 10 10 10 9 9 9 8 8 8 8 8 8 8 8 8 8
16 19 19 20 21 20 20 20 19 18 17 16 16 15 16 20 19 18 18 17 16 15 14 13 13 12 11 11 10 10 9 9 9 8 8 8 8 8 8 8 8 8 8 8
16 18 18 19 20 20 20 19 21 20 19 17 16 18 20 20 19 18 18 17 16 15 14 13 12 12 11 11 10 10 9 9 9 9 8 8 8 8 8 8 8 8 8 8
15 18 19 20 19 19 20 22 23 22 22 21 21 21 20 20 19 18 17 17 16 15 14 13 12 12 11 11 10 10 10 9 9 9 8 8 8 8 8 8 8 8 8 8
16 18 19 20 21 23 23 23 24 23 22 22 21 21 20 20 19 18 18 17 16 15 14 13 12 12 11 11 10 10 10 9 9 9 9 9 8 8 8 8 8 8 8 8
16 17 19 22 23 23 24 24 24 24 23 22 21 21 20 20 19 18 18 17 16 15 14 14 13 12 11 11 10 10 10 10 9 9 9 9 9 8 8 8 8 8 8 7
17 17 20 23 24 24 24 24 23 23 23 22 22 21 21 20 19 19 18 17 16 15 15 14 13 12 11 11 10 10 10 10 9 9 9 9 9 9 9 8 8 8 8 7
17 20 18 22 23 23 23 23 23 23 22 22 22 21 21 20 20 19 18 17 16 16 15 14 13 12 12 11 11 10 10 10 10 9 9 9 9 9 9 9 8 8 8 7
20 21 20 21 21 22 22 23 23 22 22 22 21 21 20 20 19 18 18 17 16 16 15 14 13 13 12 11 11 10 10 10 9 9 9 9 9 9 9 9 9 8 8 8
18 19 18 19 19 21 21 21 21 21 21 21 20 20 19 19 18 18 18 17 16 15 15 14 13 13 12 11 11 11 10 10 10 9 9 9 9 9 9 9 9 9 8 8
16 17 16 17 18 19 20 20 20 19 19 19 19 19 18 18 18 18 17 17 16 15 15 14 14 13 12 12 11 11 10 10 10 10 9 9 9 9 9 9 9 9 8 8
15 16 16 17 17 17 18 18 18 18 18 18 18 18 18 17 17 17 17 16 16 15 15 14 13 13 12 12 11 11 10 10 10 10 9 9 9 9 9 9 9 9 8 8
15 14 14 15 15 15 15 16 16 16 17 17 17 17 17 17 17 16 16 16 15 15 14 14 13 13 12 12 11 11 11 10 10 10 10 9 9 9 9 9 9 9 9 8
13 13 14 14 14 15 15 15 15 15 16 16 16 16 16 16 16 16 15 15 15 15 14 14 13 13 12 12 11 11 10 10 10 10 10 10 10 10 9 9 9 9 9 9
13 13 13 14 14 14 14 14 15 15 15 15 15 15 15 15 15 15 15 14 14 14 14 14 13 12 12 12 11 11 10 10 10 10 10 10 10 10 10 9 9 9 9 9
13 13 13 13 13 13 13 13 13 14 14 14 14 14 14 14 14 14 13 14 14 14 13 13 13 12 12 11 11 10 10 10 10 10 10 10 10 10 10 10 9 9 9 9
12 12 13 13 13 13 13 13 13 13 13 12 12 12 12 13 13 13 13 13 13 13 13 13 12 12 11 11 11 10 10 10 9 9 9 10 10 10 10 10 10 9 9 9
12 12 12 12 12 12 12 12 12 12 12 12 12 12 12 12 12 12 12 12 12 12 12 12 12 11 11 11 10 10 10 9 9 9 9 9 10 10 10 10 10 10 9 9
11 11 11 11 11 11 11 11 11 11 11 11 11 11 11 11 11 11 11 11 11 11 11 11 11 11 10 10 10 9 9 9 9 9 9 9 9 10 10 10 10 10 10 9
11 10 10 10 10 10 10 10 10 10 10 10 10 10 10 10 10 10 10 11 11 11 10 10 10 10 10 9 9 9 9 9 9 9 9 9 9 9 10 10 10 10 10 10
10 10 10 10 10 10 10 10 10 10 10 10 9 9 9 9 9 9 10 10 10 10 10 10 9 9 9 9 9 9 9 8 8 8 8 9 9 9 9 10 10 10 10 10
10 10 10 10 10 9 9 9 9 9 9 9 9 9 9 9 9 9 9 9 9 9 9 9 9 8 8 8 8 8 8 8 8 8 8 8 9 9 9 9 10 10 10 10
9 9 9 9 9 9 9 9 9 9 9 9 8 8 8 8 8 8 8 8 8 8 8 8 8 8 8 8 8 8 7 7 7 7 8 8 8 8 9 9 9 10 10 10
Wind_Speed
7 6 4 5 6 6 7 8 9 8 8 10 9 7 5 4 5 4 5 5 6 6 6 6 7 7 6 7 6 5 6 7 8 8 8 8 8 9 9 9 10 9 10 10
3 3 3 4 5 4 5 5 5 3 7 6 3 4 4 6 7 7 7 8 8 8 7 7 7 7 7 7 6 5 6 8 8 8 8 9 9 9 9 10 10 9 10 10
3 5 3 4 5 5 5 5 7 8 8 4 5 7 8 9 9 9 9 9 9 9 8 8 7 7 7 7 6 6 7 8 8 8 9 10 10 9 10 10 9 10 10 10
2 2 4 8 4 5 4 4 6 6 5 8 8 6 5 8 9 10 10 9 9 8 7 6 6 6 6 6 6 7 8 8 8 9 10 10 10 10 10 9 9 10 11 11
4 3 6 8 4 7 6 5 6 7 7 5 4 3 4 8 9 11 10 9 8 7 6 5 7 6 5 6 6 7 8 9 9 9 10 10 11 10 9 9 10 10 10 11
5 5 6 9 4 6 5 5 7 9 10 8 8 2 7 8 10 11 10 7 7 5 4 6 7 4 5 7 7 8 9 9 9 9 9 11 11 10 9 9 10 10 10 10
5 5 8 8 4 8 4 9 8 12 11 11 11 10 6 5 8 9 8 8 6 6 6 7 6 4 6 7 8 9 8 8 9 9 9 10 10 8 9 9 9 9 10 9
5 3 8 4 9 10 11 5 7 11 11 13 13 9 7 7 8 8 8 7 7 6 7 7 5 5 7 8 8 7 7 8 9 9 9 8 9 9 9 8 9 9 8 9
8 8 7 6 9 8 5 6 8 11 11 13 12 10 10 9 9 9 9 8 6 6 7 7 6 6 8 8 7 6 7 9 9 10 9 8 8 9 9 7 7 8 7 8
4 9 8 8 7 6 8 9 9 10 10 12 12 12 11 9 8 8 8 8 6 6 7 7 6 6 8 8 6 6 8 9 9 9 10 9 7 7 7 7 7 7 7 7
5 9 9 8 7 7 6 6 6 7 9 13 13 11 11 9 9 9 8 7 6 7 8 9 7 7 7 6 5 6 8 8 9 8 9 9 9 7 8 8 8 8 7 7
7 8 6 8 7 3 5 7 8 8 8 8 11 12 10 10 9 9 8 6 6 7 8 8 7 7 7 6 5 6 7 8 7 7 8 8 8 9 9 10 11 12 11 9
7 6 5 7 6 4 4 5 5 7 8 8 8 8 8 8 7 7 7 7 8 8 8 7 7 7 7 5 5 6 7 8 7 7 8 8 8 8 10 10 9 9 10 10
6 3 3 5 5 5 3 2 1 1 1 1 3 4 4 5 4 6 8 9 8 7 7 7 7 8 7 5 5 6 7 8 8 7 7 8 8 7 7 8 9 7 6 8
10 6 3 5 8 10 9 8 8 6 5 4 1 1 3 4 6 8 8 6 5 6 7 7 7 9 6 5 5 6 6 6 6 7 7 7 7 7 7 8 7 7 7 6
7 10 11 13 14 13 13 12 9 8 6 5 4 2 3 4 5 6 6 5 6 8 8 8 9 8 5 5 5 5 6 9 8 7 7 7 6 6 7 7 7 7 6 6
13 13 12 12 12 12 11 9 8 7 6 6 4 4 3 3 5 7 7 7 8 8 8 8 9 7 5 5 5 5 5 7 9 7 6 6 6 6 6 7 7 7 6 6
8 7 7 7 7 9 10 10 9 8 7 5 4 3 3 4 7 9 7 5 5 7 9 9 8 6 6 6 5 4 5 5 5 6 6 6 6 6 6 6 7 7 6 6
9 9 9 9 8 7 7 8 8 7 7 6 5 5 5 6 6 7 6 5 7 9 9 7 8 7 6 6 5 4 4 5 5 5 5 7 6 5 5 5 6 6 6 5
9 8 9 9 9 7 7 7 8 7 7 6 5 6 7 7 7 7 6 6 8 8 6 5 6 6 6 5 5 3 4 5 5 5 5 5 5 6 5 5 5 5 5 5
7 8 8 8 8 7 7 7 6 7 7 6 5 5 7 8 7 6 5 8 9 7 7 7 5 5 4 4 4 3 4 4 4 4 4 5 5 5 5 5 5 5 5 5
6 6 7 7 7 7 7 6 6 6 7 7 7 6 7 9 9 8 7 7 8 8 5 4 4 5 5 4 3 3 3 4 4 3 4 4 5 5 5 5 5 5 4 4
6 6 7 7 6 7 7 6 6 6 6 6 7 7 7 8 7 6 9 8 7 8 5 5 5 7 6 3 2 3 3 3 3 3 4 4 4 4 4 5 4 4 4 4
6 7 7 6 5 4 5 6 6 5 5 6 6 7 6 7 7 6 7 10 10 9 5 5 6 6 4 2 2 2 2 2 2 3 3 4 4 4 4 4 4 4 4 4
7 6 6 6 5 4 5 6 6 6 6 6 8 8 7 5 6 8 9 9 9 8 5 4 5 4 3 2 2 2 2 1 2 2 3 3 3 4 4 4 4 4 4 4
6 6 6 6 6 5 5 4 4 5 5 6 7 7 8 7 8 8 7 8 8 7 5 3 2 2 2 2 2 1 1 1 1 2 2 3 4 4 4 4 5 4 4 4
7 6 5 5 5 5 5 4 5 5 5 5 7 7 8 8 8 7 8 7 6 5 3 2 1 1 1 1 1 1 1 1 2 2 2 3 3 4 4 5 4 4 4 4
Wind_Direction
234 248 244 247 246 192 189 188 186 225 224 240 222 214 213 190 174 183 212 232 241 250 262 271 278 280 279 280 284 287 290 289 285 286 286 285 285 284 284 282 282 278 279 279
284 287 277 260 253 199 192 186 201 219 248 248 202 153 173 184 188 208 230 241 249 256 261 266 268 272 276 277 281 287 285 285 287 290 292 289 287 287 287 287 285 283 281 279
259 310 8 278 242 206 203 195 173 200 231 184 172 194 205 203 204 217 231 241 247 251 254 259 261 260 264 269 282 287 284 287 290 291 293 291 292 293 290 289 288 288 285 281
162 60 242 251 270 196 181 212 204 213 214 192 200 209 220 202 203 222 234 241 247 249 254 260 260 262 265 274 280 283 286 288 290 292 294 294 294 291 289 288 289 288 287 285
136 181 275 291 232 164 160 240 212 196 200 180 109 56 300 225 210 219 227 231 236 239 243 257 265 265 273 281 283 286 286 288 290 292 295 297 296 293 291 290 292 289 287 286
139 163 229 250 230 155 108 277 224 190 191 164 127 161 257 234 210 224 233 234 236 242 244 256 262 262 266 276 283 282 283 286 289 290 292 293 291 290 289 288 288 290 288 285
165 204 253 251 164 130 162 243 211 190 188 169 182 205 225 220 206 215 223 228 229 233 242 250 258 252 259 271 273 274 281 287 292 291 290 288 286 286 290 291 291 290 289 290
149 184 258 215 146 179 213 221 184 189 188 187 209 225 235 228 220 217 219 227 224 225 245 255 250 238 257 266 269 279 285 291 293 293 293 294 292 293 292 291 293 293 295 298
189 215 243 213 208 226 190 197 198 193 196 194 206 222 224 225 223 220 219 224 221 221 245 261 252 231 251 264 276 286 291 293 296 299 297 292 291 295 300 296 292 293 293 296
253 271 264 253 247 238 209 211 209 197 191 185 199 213 215 219 218 218 223 224 219 217 238 257 257 245 245 265 276 280 287 294 298 303 305 304 298 291 292 294 294 294 292 293
265 280 301 293 253 238 228 227 216 204 196 196 201 211 209 211 213 215 220 221 211 216 234 249 259 262 262 264 266 276 286 293 300 301 301 306 305 294 287 280 270 274 282 281
239 250 233 263 275 258 221 223 213 203 212 211 204 211 205 208 209 208 215 214 217 226 237 250 257 264 269 264 254 268 287 297 300 304 305 305 308 310 292 277 281 269 256 258
251 275 247 274 316 307 244 238 217 202 209 215 216 208 201 208 209 205 211 214 222 230 238 247 254 263 267 261 252 260 274 288 296 299 302 305 306 307 312 314 301 283 272 268
303 299 340 339 329 342 354 354 43 16 294 237 208 191 193 204 205 213 220 222 224 230 239 243 252 262 263 254 253 266 275 284 289 291 296 298 300 301 300 304 311 311 297 284
12 37 38 10 24 26 28 40 45 26 13 7 22 179 194 204 220 234 234 225 222 233 243 244 252 262 262 245 253 269 280 285 289 292 293 295 297 299 301 302 301 302 307 307
25 41 42 41 36 30 31 33 30 13 9 7 1 318 250 234 241 249 242 215 216 236 241 241 249 256 250 242 256 270 277 287 296 295 299 303 305 306 309 310 310 309 308 308
48 34 25 27 25 26 25 22 21 13 14 10 339 306 277 260 262 261 253 235 230 240 242 240 249 253 239 238 248 264 279 292 302 303 299 300 304 306 307 309 310 312 308 297
58 50 40 33 24 22 17 13 11 6 357 338 328 320 301 280 272 274 278 277 265 264 255 244 243 241 237 239 244 257 272 284 293 298 301 304 305 304 307 311 314 316 317 317
38 33 28 24 14 13 9 360 351 345 341 343 342 325 303 292 287 287 285 269 262 267 266 246 235 231 237 241 244 250 266 282 292 298 299 304 309 312 316 317 317 318 316 320
24 18 17 11 6 2 353 345 342 341 338 341 342 339 330 318 310 304 293 273 259 254 255 247 233 230 234 240 245 247 261 276 289 299 305 311 313 315 318 318 320 321 322 326
5 0 359 354 346 341 337 334 332 329 328 336 339 327 316 312 314 310 302 295 286 272 262 246 233 229 224 224 239 245 259 274 285 295 304 309 311 314 317 322 327 326 325 330
343 342 338 336 335 328 325 326 327 328 334 338 336 331 328 324 321 314 292 274 284 286 277 256 243 230 219 217 226 242 256 271 282 293 302 307 310 313 318 325 328 328 328 332
323 320 319 319 316 307 316 329 337 335 334 331 328 325 318 307 303 302 306 301 305 294 283 258 239 226 219 212 224 242 256 269 284 298 305 307 309 314 321 326 329 332 335 337
311 309 306 303 309 323 329 322 323 319 315 311 308 307 307 312 313 300 287 297 300 293 282 259 238 225 203 207 228 241 256 272 291 304 311 317 323 329 334 336 339 343 345 348
294 294 297 306 309 299 291 301 312 314 319 317 313 312 308 292 288 301 304 304 303 299 294 269 239 218 201 206 219 230 243 269 302 310 320 331 337 340 341 344 346 347 351 352
288 287 282 274 267 267 274 282 286 290 297 305 307 307 311 311 306 306 307 307 306 300 291 281 249 218 214 211 208 213 241 312 335 348 349 343 347 353 350 352 355 358 358 355
287 283 282 288 283 269 264 262 266 275 276 277 288 296 304 309 311 315 318 321 319 313 305 292 245 206 186 156 125 99 69 34 15 7 2 357 354 356 356 358 359 359 360 4
Height
1501 1497 1497 1497 1495 1498 1504 1507 1514 1508 1507 1497 1494 1494 1495 1497 1499 1500 1502 1502 1503 1502 1501 1500 1498 1496 1494 1492 1490 1487 1484 1481 1478 1475 1471 1467 1464 1461 1458 1455 1452 1449 1446 1444
1499 1494 1495 1495 1491 1492 1495 1498 1501 1500 1500 1491 1491 1493 1495 1496 1497 1499 1500 1500 1500 1500 1498 1496 1495 1493 1491 1489 1486 1483 1480 1477 1473 1470 1466 1462 1459 1455 1452 1449 1446 1443 1440 1438
1507 1499 1495 1501 1490 1489 1490 1491 1495 1499 1494 1489 1491 1492 1492 1494 1495 1496 1497 1498 1497 1496 1495 1493 1492 1490 1487 1485 1482 1480 1476 1473 1469 1465 1461 1457 1454 1450 1447 1444 1440 1437 1435 1432
1509 1504 1511 1498 1484 1484 1487 1487 1487 1487 1487 1487 1488 1489 1490 1492 1493 1494 1495 1495 1494 1493 1492 1490 1488 1486 1484 1482 1479 1476 1472 1468 1464 1460 1456 1452 1449 1445 1442 1439 1435 1432 1429 1426
1513 1511 1505 1491 1482 1483 1486 1487 1483 1484 1484 1486 1488 1489 1489 1489 1490 1491 1491 1491 1491 1490 1489 1487 1485 1483 1481 1478 1475 1472 1468 1464 1460 1456 1451 1447 1444 1441 1437 1434 1431 1427 1424 1421
1510 1509 1510 1490 1476 1477 1483 1490 1479 1480 1482 1484 1487 1494 1489 1485 1486 1487 1488 1488 1487 1486 1485 1483 1482 1480 1477 1474 1471 1468 1464 1460 1456 1451 1447 1443 1440 1437 1433 1430 1426 1423 1419 1416
1506 1506 1498 1477 1474 1478 1494 1488 1472 1474 1476 1480 1482 1483 1482 1482 1483 1483 1484 1484 1484 1483 1481 1480 1478 1476 1473 1470 1467 1464 1460 1456 1452 1447 1443 1440 1436 1433 1429 1426 1422 1419 1415 1412
1506 1505 1497 1471 1474 1478 1474 1466 1467 1469 1472 1474 1475 1477 1479 1479 1479 1480 1480 1480 1480 1479 1478 1476 1474 1472 1469 1466 1463 1460 1456 1452 1448 1444 1440 1436 1432 1429 1426 1422 1418 1414 1411 1407
1489 1485 1470 1467 1466 1464 1465 1464 1464 1466 1468 1470 1472 1473 1474 1475 1476 1476 1476 1476 1476 1475 1474 1473 1471 1468 1465 1462 1459 1456 1452 1448 1444 1440 1436 1433 1429 1425 1421 1418 1414 1410 1406 1402
1480 1471 1465 1463 1463 1462 1461 1461 1462 1463 1465 1466 1468 1469 1470 1471 1472 1472 1472 1472 1472 1471 1470 1469 1467 1464 1461 1459 1455 1452 1448 1444 1440 1436 1432 1429 1426 1422 1418 1414 1410 1406 1402 1399
1476 1468 1463 1460 1459 1458 1458 1459 1459 1460 1461 1462 1463 1465 1466 1467 1468 1468 1469 1469 1469 1468 1466 1465 1463 1460 1458 1455 1452 1448 1444 1441 1437 1433 1429 1425 1422 1419 1414 1411 1407 1403 1399 1395
1473 1463 1463 1459 1457 1456 1456 1455 1456 1456 1457 1458 1459 1460 1462 1463 1464 1465 1465 1466 1465 1464 1463 1461 1459 1457 1454 1451 1448 1444 1441 1437 1433 1430 1426 1422 1419 1415 1412 1408 1404 1400 1396 1392
1464 1461 1460 1457 1455 1454 1452 1452 1453 1453 1453 1454 1455 1457 1458 1459 1460 1461 1462 1463 1462 1461 1460 1458 1455 1453 1450 1447 1444 1441 1437 1434 1430 1427 1423 1419 1416 1412 1408 1404 1401 1397 1393 1389
1460 1458 1456 1455 1453 1451 1450 1450 1451 1451 1452 1452 1453 1454 1456 1457 1458 1459 1459 1460 1459 1458 1456 1454 1452 1449 1447 1444 1441 1438 1434 1431 1428 1424 1421 1417 1413 1410 1405 1401 1397 1393 1390 1387
1459 1458 1458 1456 1452 1451 1450 1449 1449 1450 1450 1451 1452 1453 1454 1455 1456 1457 1457 1456 1455 1454 1452 1450 1448 1446 1444 1441 1438 1435 1431 1428 1425 1422 1418 1415 1411 1408 1404 1400 1395 1391 1388 1385
1462 1460 1457 1455 1453 1452 1451 1450 1451 1451 1451 1451 1451 1452 1453 1454 1454 1453 1453 1452 1451 1449 1448 1446 1444 1442 1440 1437 1434 1431 1428 1425 1422 1419 1416 1412 1409 1406 1402 1398 1394 1389 1386 1383
1463 1462 1460 1459 1458 1456 1455 1455 1454 1453 1452 1451 1451 1452 1452 1451 1450 1449 1449 1448 1446 1444 1443 1441 1440 1438 1436 1433 1431 1428 1425 1422 1419 1416 1413 1410 1407 1403 1400 1396 1392 1388 1385 1381
1469 1468 1466 1465 1463 1461 1459 1458 1456 1454 1453 1452 1451 1450 1449 1448 1446 1445 1444 1443 1441 1439 1438 1436 1435 1433 1431 1429 1427 1424 1421 1419 1416 1414 1411 1408 1405 1402 1398 1395 1391 1388 1384 1381
1472 1471 1469 1467 1465 1463 1461 1460 1458 1455 1453 1451 1449 1448 1446 1445 1443 1441 1439 1437 1435 1433 1432 1431 1430 1428 1426 1424 1422 1420 1418 1415 1413 1411 1409 1406 1403 1400 1397 1394 1391 1388 1384 1381
1474 1472 1470 1468 1466 1464 1462 1459 1457 1455 1453 1450 1448 1445 1443 1441 1439 1436 1434 1432 1430 1428 1426 1425 1424 1422 1421 1419 1418 1416 1414 1412 1410 1408 1406 1404 1401 1399 1396 1393 1390 1387 1384 1381
1474 1472 1469 1467 1465 1463 1461 1458 1456 1453 1451 1448 1445 1443 1440 1438 1435 1432 1429 1426 1424 1423 1420 1419 1417 1416 1415 1414 1413 1412 1410 1408 1407 1405 1404 1401 1399 1397 1395 1392 1389 1387 1384 1381
1472 1470 1468 1465 1463 1461 1458 1456 1453 1451 1448 1446 1443 1441 1438 1435 1432 1429 1426 1423 1419 1417 1414 1412 1411 1411 1410 1409 1408 1407 1406 1405 1404 1402 1401 1399 1397 1395 1393 1391 1389 1386 1384 1382
1470 1468 1465 1463 1460 1458 1456 1454 1451 1449 1447 1444 1442 1439 1436 1433 1429 1426 1422 1418 1415 1412 1409 1407 1406 1405 1405 1405 1404 1403 1402 1401 1400 1399 1398 1397 1396 1394 1392 1390 1388 1386 1384 1382
1467 1465 1463 1460 1458 1456 1454 1451 1449 1447 1445 1443 1440 1437 1433 1429 1426 1422 1418 1414 1410 1407 1404 1403 1401 1401 1400 1400 1400 1399 1399 1398 1397 1397 1396 1395 1394 1392 1391 1389 1388 1386 1384 1383
1464 1462 1459 1457 1455 1453 1451 1449 1447 1445 1443 1440 1437 1434 1430 1427 1422 1418 1414 1409 1406 1403 1400 1398 1397 1397 1396 1396 1396 1396 1395 1395 1394 1394 1393 1393 1392 1391 1390 1389 1387 1386 1385 1383
1460 1458 1456 1454 1452 1450 1448 1446 1444 1442 1439 1436 1433 1430 1426 1422 1418 1414 1409 1405 1401 1398 1396 1394 1393 1393 1393 1393 1393 1392 1392 1392 1392 1391 1391 1390 1390 1389 1388 1387 1387 1386 1385 1384
1456 1454 1452 1450 1449 1447 1445 1442 1440 1438 1435 1432 1429 1425 1422 1418 1413 1409 1405 1401 1397 1394 1392 1390 1389 1389 1389 1389 1389 1389 1389 1389 1388 1388 1388 1388 1387 1387 1387 1386 1386 1385 1385 1384